USA 157 (MILSTAR-2 2)

Last updated on Wed Sep 17 2025 00:02:46 GMT+0000 (Coordinated Universal Time)

1 26715U 01009A 25259.51919449 .00000096 00000+0 00000+0 0 9999 2 26715 11.2404 21.3829 0043509 182.0866 189.2099 1.00277672 30207
UTC large
Height (km)
Speed (km/s)
/
Latitude / Longitude
Inclination (degrees)
Orbital Period (minutes)
Azimuth
Elevation
Range (km)
Doppler Factor

Next 0 passes for location: London (51.5072 / 0.1276)

Sorry there are no passes over London.